Location: 5810 Zion Rd, Cleves, OH 45002, USA
(39.1922°N, 84.7113°W)
Time: 14:25:46
(UTC-05:00)

Vanguard 1 Rocket - All Passes

Search period start: 07 December 2019 00:00
Search period end: 17 December 2019 00:00
Orbit: 650 x 4226 km, 34.3° (Epoch: 06 December)

Date Brightness Start Highest point End Pass type
(mag) Time Alt. Az. Time Alt. Az. Time Alt. Az.
07 Dec - 01:42:40 10° W 01:51:15 55° SSW 01:56:18 10° ESE night (unlit)
07 Dec - 04:11:41 10° WSW 04:15:17 18° SSW 04:18:22 10° SSE visible
07 Dec - 19:29:22 10° SSW 19:45:25 27° SSE 19:55:54 10° E visible
07 Dec - 21:57:24 10° SW 22:13:40 50° SSE 22:22:09 10° E visible
08 Dec - 00:28:48 10° W 00:40:08 63° S 00:46:08 10° ESE visible
08 Dec - 02:58:42 10° W 03:04:51 33° SSW 03:09:06 10° SE night (unlit)
08 Dec - 18:18:26 10° S 18:32:09 19° SE 18:42:25 10° ESE visible
08 Dec - 20:43:04 10° SW 21:01:10 43° SSE 21:11:14 10° E visible
08 Dec - 23:14:12 10° WSW 23:28:34 63° S 23:35:50 10° E visible
09 Dec - 01:45:24 10° W 01:54:10 51° SSW 01:59:17 10° ESE night (unlit)
09 Dec - 04:15:35 10° WSW 04:17:56 13° SW 04:20:02 10° S night (unlit)
09 Dec - 17:12:19 10° SSE 17:18:38 12° SE 17:24:18 10° ESE daylight
09 Dec - 19:29:31 10° SSW 19:48:09 34° SSE 19:59:41 10° E visible
09 Dec - 21:59:13 10° WSW 22:16:32 58° SSE 22:25:19 10° E visible
10 Dec - 00:31:22 10° W 00:43:04 63° S 00:49:12 10° ESE visible
10 Dec - 03:01:44 10° W 03:07:35 27° SSW 03:11:42 10° SSE night (unlit)
10 Dec - 18:17:22 10° S 18:34:46 26° SE 18:47:02 10° E visible
10 Dec - 20:44:21 10° SW 21:03:56 50° SSE 21:14:29 10° E visible
10 Dec - 23:16:33 10° WSW 23:31:29 67° S 23:38:56 10° E visible
11 Dec - 01:48:10 10° W 01:57:00 45° SSW 02:02:11 10° SE night (unlit)
11 Dec - 17:07:44 10° S 17:21:11 18° SE 17:32:09 10° ESE daylight
11 Dec - 19:30:11 10° SW 19:50:49 42° SSE 20:03:08 10° E visible
11 Dec - 22:01:14 10° WSW 22:19:21 64° S 22:28:26 10° E visible
12 Dec - 00:33:57 10° W 00:45:58 61° SSW 00:52:14 10° ESE visible
12 Dec - 03:04:56 10° W 03:10:12 21° SW 03:14:03 10° SSE night (unlit)
12 Dec - 18:17:13 10° SSW 18:37:17 33° SSE 18:50:58 10° E visible
12 Dec - 20:45:56 10° SW 21:06:39 58° SSE 21:17:38 10° E visible
12 Dec - 23:18:58 10° W 23:34:22 68° S 23:42:01 10° ESE visible
13 Dec - 01:50:57 10° W 01:59:44 38° SSW 02:04:58 10° SE night (unlit)
13 Dec - 17:06:07 10° S 17:23:36 24° SE 17:37:16 10° E daylight
13 Dec - 19:31:15 10° SW 19:53:25 49° SSE 20:06:24 10° E visible
13 Dec - 22:03:24 10° WSW 22:22:12 69° S 22:31:31 10° E visible
14 Dec - 00:36:33 10° W 00:48:47 56° SSW 00:55:12 10° ESE visible
14 Dec - 03:08:30 10° WSW 03:12:41 16° SW 03:15:57 10° S night (unlit)
14 Dec - 15:58:34 10° SSE 16:09:56 15° SE 16:20:08 10° ESE daylight
14 Dec - 18:17:41 10° SSW 18:39:45 40° SSE 18:54:28 10° E visible
14 Dec - 20:47:45 10° WSW 21:09:23 64° SSE 21:20:44 10° E visible
14 Dec - 23:21:25 10° W 23:37:14 68° S 23:45:04 10° ESE visible
15 Dec - 01:53:49 10° W 02:02:21 32° SW 02:07:34 10° SSE night (unlit)
15 Dec - 17:05:39 10° SSW 17:25:53 30° SE 17:41:24 10° E daylight
15 Dec - 19:32:39 10° SW 19:55:59 57° SSE 20:09:32 10° E visible
15 Dec - 22:05:40 10° WSW 22:25:00 71° S 22:34:35 10° E visible
16 Dec - 00:39:10 10° W 00:51:32 50° SSW 00:58:05 10° SE visible
16 Dec - 03:13:01 10° WSW 03:15:02 11° SW 03:16:51 10° SSW night (unlit)
16 Dec - 15:56:00 10° S 16:12:07 21° SE 16:26:13 10° E daylight
16 Dec - 18:18:35 10° SW 18:42:08 47° SSE 18:57:45 10° E visible
16 Dec - 20:49:46 10° WSW 21:12:05 69° S 21:23:48 10° E visible
16 Dec - 23:23:53 10° W 23:40:02 65° SSW 23:48:03 10° ESE visible
